User: anonymous   Login
Location: Unspecified
(0.0000°N, 0.0000°E)
Time: 08:53:20
(UTC+00:00)
Language:

PLEIADES 1B - Orbit

View from above orbital plane
View from above orbital plane
View from above satellite
View from above satellite

Ground track
Ground track

The orbit data is extracted from the following two-line orbital elements,

1 39019U 12068A   15187.70451317  .00000252  00000-0  64059-4 0  9996
2 39019 098.1976 262.0590 0001338 100.8010 259.3340 14.58539555138001
Epoch (UTC): 06 July 2015 16:54:29
Eccentricity: 0.0001338
inclination: 98.1976°
perigee height: 697 km
apogee height: 699 km
right ascension of ascending node: 262.0590°
argument of perigee: 100.8010°
revolutions per day: 14.58539555
mean anomaly at epoch: 259.3340°
orbit number at epoch: 13800

The dashed part of the orbit path shows where the satellite is in the earth's shadow,  

DLR